Weather History for Vinton, IA

Change the Weather History Date:

Wednesday, September 25, 2013

  Actual Average Record
Temperature  
Mean Temperature 65 °F -  
Max Temperature 79 °F 72 °F 87 °F (1956)
Min Temperature 51 °F 46 °F 35 °F (2011)
Growing Degree Days 15 (Base 50)    
Moisture  
Dew Point 50 °F    
Average Humidity 63    
Maximum Humidity 88    
Minimum Humidity 33    
Precipitation  
Precipitation 0.00 in - - ()
Sea Level Pressure  
Sea Level Pressure 29.93 in    
Wind  
Wind Speed 3 mph (East)    
Max Wind Speed 10 mph    
Max Gust Speed -    
Visibility 9 miles    
Events      
Averages and records for this station are not official NWS values.
T = Trace of Precipitation, MM = Missing Value Source: NWS Daily Summary

Daily Weather History Graph

Daily Weather History Graph

Search for Another Location

Airport:

Trip Planner

Search our weather history database for the weather conditions in past years. The results will help you decide how hot, cold, wet, or windy it might be!

Date:

Astronomy

Sep. 25, 2013 Rise Set
Actual Time 6:58 AM CDT 6:59 PM CDT
Civil Twilight 6:31 AM CDT 7:27 PM CDT
Nautical Twilight 5:58 AM CDT 8:00 PM CDT
Astronomical Twilight 5:25 AM CDT 8:33 PM CDT
Moon 11:00 PM CDT (9/25) 1:10 PM CDT (9/25)
Length of Visible Light 12h 56m
Length of Day
12h 00m
Waning Gibbous, 64% of the Moon is Illuminated
Sep 25
Waning Gibbous
Sep 26
Last Quarter
Oct 4
New
Oct 11
First Quarter
Oct 18
Full

Hourly Weather History & Observations

Time (CDT) Temp. Dew Point Humidity Pressure Visibility Wind Dir Wind Speed Gust Speed Precip Events Conditions
12:15 AM 56.7 °F 50.9 °F 81% 29.93 in 10.0 mi Calm Calm - N/A   Clear
12:35 AM 56.7 °F 50.9 °F 81% 29.93 in 10.0 mi NE 3.5 mph - N/A   Clear
12:55 AM 56.7 °F 51.1 °F 82% 29.94 in 10.0 mi Calm Calm - N/A   Clear
1:15 AM 54.1 °F 48.7 °F 82% 29.94 in 10.0 mi Calm Calm - N/A   Scattered Clouds
1:35 AM 56.7 °F 50.9 °F 81% 29.94 in 10.0 mi Calm Calm - N/A   Scattered Clouds
1:55 AM 56.7 °F 50.5 °F 80% 29.94 in 10.0 mi Calm Calm - N/A   Clear
2:15 AM 56.7 °F 50.2 °F 79% 29.94 in 10.0 mi Calm Calm - N/A   Clear
2:35 AM 56.7 °F 50.5 °F 80% 29.94 in 10.0 mi Calm Calm - N/A   Clear
2:55 AM 55.9 °F 50.2 °F 81% 29.94 in 10.0 mi Calm Calm - N/A   Clear
3:15 AM 56.7 °F 50.7 °F 80% 29.94 in 10.0 mi Calm Calm - N/A   Clear
3:35 AM 54.1 °F 48.6 °F 81% 29.94 in 10.0 mi Calm Calm - N/A   Clear
3:55 AM 53.8 °F 48.9 °F 84% 29.94 in 7.0 mi Calm Calm - N/A   Clear
4:15 AM 51.8 °F 47.7 °F 86% 29.93 in 7.0 mi NNE 3.5 mph - N/A   Clear
4:35 AM 51.8 °F 47.7 °F 86% 29.93 in 7.0 mi NE 3.5 mph - N/A   Clear
4:55 AM 51.8 °F 47.3 °F 85% 29.94 in 7.0 mi NNE 3.5 mph - N/A   Clear
5:15 AM 51.8 °F 47.7 °F 86% 29.94 in 5.0 mi NNE 3.5 mph - N/A   Clear
5:35 AM 51.8 °F 48.2 °F 88% 29.94 in 5.0 mi NE 3.5 mph - N/A   Clear
5:55 AM 51.8 °F 48.2 °F 88% 29.94 in 5.0 mi NE 5.8 mph - N/A   Clear
6:15 AM 51.8 °F 48.2 °F 88% 29.95 in 5.0 mi NNE 3.5 mph - N/A   Clear
6:35 AM 51.8 °F 48.2 °F 88% 29.95 in 5.0 mi ENE 4.6 mph - N/A   Clear
6:55 AM 51.8 °F 47.7 °F 86% 29.96 in 5.0 mi NNE 3.5 mph - N/A   Clear
7:15 AM 51.8 °F 48.2 °F 88% 29.96 in 3.0 mi NE 3.5 mph - N/A   Clear
7:35 AM 51.8 °F 48.2 °F 88% 29.96 in 4.0 mi East 3.5 mph - N/A   Clear
7:55 AM 52.3 °F 48.2 °F 86% 29.96 in 5.0 mi Calm Calm - N/A   Clear
8:15 AM 56.7 °F 51.1 °F 82% 29.97 in 5.0 mi East 3.5 mph - N/A   Haze
8:35 AM 56.7 °F 50.2 °F 79% 29.97 in 5.0 mi East 4.6 mph - N/A   Haze
8:55 AM 58.5 °F 50.7 °F 75% 29.97 in 7.0 mi East 8.1 mph - N/A   Clear
9:15 AM 59.2 °F 50.2 °F 72% 29.98 in 7.0 mi East 4.6 mph - N/A   Clear
9:35 AM 61.7 °F 50.4 °F 66% 29.98 in 10.0 mi East 4.6 mph - N/A   Clear
9:55 AM 63.9 °F 50.9 °F 63% 29.98 in 10.0 mi ENE 5.8 mph - N/A   Clear
10:15 AM 65.5 °F 50.4 °F 58% 29.98 in 10.0 mi East 5.8 mph - N/A   Clear
10:35 AM 69.3 °F 51.1 °F 52% 29.98 in 10.0 mi East 6.9 mph - N/A   Clear
10:55 AM 71.8 °F 51.4 °F 49% 29.97 in 10.0 mi East 8.1 mph - N/A   Clear
11:15 AM 71.8 °F 49.8 °F 46% 29.97 in 10.0 mi East 6.9 mph - N/A   Clear
11:35 AM 72.1 °F 47.7 °F 42% 29.97 in 10.0 mi East 9.2 mph - N/A   Clear
11:55 AM 74.1 °F 48.6 °F 40% 29.97 in 10.0 mi East 8.1 mph - N/A   Clear
12:15 PM 75.2 °F 48.4 °F 39% 29.96 in 10.0 mi SE 10.4 mph - N/A   Clear
12:35 PM 77.0 °F 48.9 °F 37% 29.95 in 10.0 mi ESE 6.9 mph - N/A   Clear
1:15 PM 77.0 °F 48.0 °F 36% 29.94 in 10.0 mi SE 4.6 mph - N/A   Clear
1:35 PM 77.0 °F 48.2 °F 36% 29.93 in 10.0 mi ESE 10.4 mph - N/A   Clear
1:55 PM 77.0 °F 47.3 °F 35% 29.92 in 10.0 mi SE 6.9 mph - N/A   Clear
2:15 PM 77.0 °F 46.8 °F 34% 29.92 in 10.0 mi ESE 6.9 mph - N/A   Clear
2:35 PM 77.7 °F 47.8 °F 35% 29.91 in 10.0 mi SE 5.8 mph - N/A   Clear
2:55 PM 79.3 °F 47.7 °F 33% 29.91 in 10.0 mi SE 6.9 mph - N/A   Clear
3:15 PM 78.6 °F 49.1 °F 35% 29.91 in 10.0 mi SE 5.8 mph - N/A   Clear
3:55 PM 79.3 °F 48.0 °F 33% 29.90 in 10.0 mi ESE 5.8 mph - N/A   Clear
4:15 PM 79.3 °F 48.2 °F 33% 29.90 in 10.0 mi SE 6.9 mph - N/A   Clear
4:35 PM 79.3 °F 49.1 °F 35% 29.90 in 10.0 mi Calm Calm - N/A   Clear
4:55 PM 79.3 °F 49.8 °F 36% 29.90 in 10.0 mi ESE 8.1 mph - N/A   Clear
5:15 PM 78.8 °F 50.0 °F 36% 29.90 in 10.0 mi ESE 8.1 mph - N/A   Clear
5:35 PM 77.0 °F 49.1 °F 37% 29.90 in 10.0 mi SE 6.9 mph - N/A   Clear
5:55 PM 77.0 °F 50.2 °F 39% 29.90 in 10.0 mi ESE 5.8 mph - N/A   Clear
6:15 PM 77.0 °F 51.8 °F 41% 29.90 in 10.0 mi ESE 6.9 mph - N/A   Clear
6:35 PM 73.9 °F 52.2 °F 46% 29.90 in 10.0 mi ESE 4.6 mph - N/A   Clear
6:55 PM 71.8 °F 52.9 °F 51% 29.89 in 10.0 mi ESE 5.8 mph - N/A   Clear
7:15 PM 69.3 °F 53.8 °F 58% 29.90 in 10.0 mi East 5.8 mph - N/A   Clear
7:35 PM 66.7 °F 53.4 °F 62% 29.90 in 10.0 mi East 5.8 mph - N/A   Clear
7:55 PM 66.7 °F 52.5 °F 60% 29.90 in 10.0 mi East 5.8 mph - N/A   Clear
8:15 PM 64.4 °F 52.0 °F 64% 29.89 in 10.0 mi East 6.9 mph - N/A   Clear
8:35 PM 64.0 °F 52.5 °F 66% 29.89 in 10.0 mi East 5.8 mph - N/A   Clear
8:55 PM 64.4 °F 52.5 °F 65% 29.90 in 10.0 mi East 6.9 mph - N/A   Clear
9:15 PM 63.5 °F 51.8 °F 66% 29.90 in 10.0 mi East 6.9 mph - N/A   Clear
9:35 PM 63.0 °F 51.6 °F 66% 29.90 in 10.0 mi East 5.8 mph - N/A   Clear
9:55 PM 61.7 °F 50.9 °F 68% 29.90 in 10.0 mi East 5.8 mph - N/A   Clear
10:15 PM 61.7 °F 51.3 °F 69% 29.91 in 10.0 mi East 4.6 mph - N/A   Clear
10:35 PM 61.7 °F 51.8 °F 70% 29.91 in 10.0 mi ESE 5.8 mph - N/A   Clear
10:55 PM 59.9 °F 50.9 °F 72% 29.91 in 10.0 mi ESE 5.8 mph - N/A   Clear
11:15 PM 61.7 °F 51.8 °F 70% 29.91 in 10.0 mi ESE 6.9 mph - N/A   Clear
11:35 PM 61.7 °F 50.9 °F 68% 29.92 in 10.0 mi ESE 6.9 mph - N/A   Clear
11:55 PM 61.7 °F 50.0 °F 65% 29.92 in 10.0 mi ESE 8.1 mph - N/A   Clear